[[{"header":{"parameterUnit":"m.s-1","parameterCategory":2,"la1":30.2991,"la2":30.254,"lo1":-89.0895,"lo2":-89.0444,"dy":0.0017,"dx":0.0017,"nx":28,"ny":28,"refTime":"2024-03-02T09:00:00:Z","depth":"0","parameterNumber":2,"parameterNumberName":"U-component_of_CURRENTS"},"data":[0,0,0,0,0,0,0,0,0,0,0,0,0,0,0,0,0,0,0,0,0,0,0,0,0,0,0,0,0,0,0,0,0,0,0,0,0,0,0,0,0,0,0,0,0,0,0,0,0,0,0,0,0,0,0,0,0,0,-0.3894,-0.3894,0,-0.3934,-0.3934,-0.3935,-0.3939,-0.3938,-0.3938,-0.3937,-0.3793,-0.379,-0.3787,0,0,0,0,0,0,0,0,0,0,0,0,0,-0.3851,-0.3852,-0.3894,-0.3894,-0.3895,-0.3934,-0.3934,-0.3935,-0.3939,-0.3938,-0.3938,-0.3937,-0.3794,-0.379,-0.3786,0,0,0,0,0,0,0,0,0,0,0,0,0,-0.3879,-0.3852,-0.3894,-0.3901,-0.3902,-0.3933,-0.3934,-0.3935,-0.3939,-0.3938,-0.3937,-0.3937,-0.3796,-0.3791,-0.3786,-0.3769,0,0,-0.377,-0.3768,0,0,0,0,0,0,0,0,-0.3877,-0.3881,-0.3899,-0.39,-0.3901,-0.393,-0.3866,-0.387,-0.3939,-0.3926,-0.3937,-0.3936,-0.3822,-0.3815,-0.3828,-0.3763,-0.3756,-0.377,-0.3767,-0.3765,-0.3763,0,0,0,0,0,0,0,-0.3875,-0.3879,-0.3911,-0.39,-0.3901,-0.3912,-0.3915,-0.3868,-0.3875,-0.3927,-0.3927,-0.393,-0.3821,-0.3833,-0.3824,-0.3754,-0.377,-0.3765,-0.3762,-0.376,-0.369,-0.3691,0,0,0,0,0,0,-0.3868,-0.3877,-0.3909,-0.3912,-0.3886,-0.3913,-0.3916,-0.3922,-0.3879,-0.3873,-0.3931,-0.393,-0.3842,-0.383,-0.3818,-0.3806,-0.3765,-0.376,-0.3757,-0.3689,-0.3691,-0.3692,0,0,0,0,0,0,-0.3867,-0.3871,-0.3908,-0.3894,-0.39,-0.3914,-0.3921,-0.3923,-0.3932,-0.3884,-0.3875,-0.3937,-0.3841,-0.3825,-0.3778,-0.3799,-0.3758,-0.3753,-0.3688,-0.369,-0.3691,-0.3773,0,0,0,0,0,0,-0.3866,-0.387,-0.3879,-0.3894,-0.39,-0.3936,-0.3921,-0.3924,-0.3935,-0.3935,-0.3886,-0.3872,-0.3839,-0.3787,-0.3774,-0.3791,-0.3749,-0.3686,-0.3689,-0.3691,-0.3769,-0.3777,-0.3785,0,0,0,0,0,-0.3864,-0.3881,-0.3879,-0.3883,-0.3909,-0.3937,-0.3942,-0.395,-0.3936,-0.3953,-0.391,-0.3874,-0.3792,-0.3783,-0.3767,-0.3784,-0.3685,-0.3688,-0.369,-0.3765,-0.3776,-0.3785,0,0,0,0,0,0,-0.3861,-0.3884,-0.3882,-0.3902,-0.3921,-0.3938,-0.3946,-0.3951,-0.3937,-0.3924,-0.3873,-0.3858,-0.3828,-0.3794,-0.3785,-0.3774,-0.3739,-0.3738,-0.3801,-0.381,-0.3818,-0.3826,-0.3745,0,0,0,0,0,-0.3865,-0.3885,-0.3903,-0.3917,-0.3922,-0.3932,-0.3944,-0.3954,-0.3941,-0.3937,-0.3905,-0.3866,-0.383,-0.3809,-0.3774,-0.3756,-0.3695,-0.3763,-0.3771,-0.3778,-0.3776,-0.3717,-0.3718,-0.37,-0.37,-0.37,0,0,-0.3862,-0.388,-0.3888,-0.3919,-0.3923,-0.3948,-0.3937,-0.3957,-0.3979,-0.3917,-0.3919,-0.3882,-0.383,-0.3819,-0.3804,-0.379,-0.3748,-0.3781,-0.3788,-0.3781,-0.3719,-0.3721,-0.3722,-0.3702,-0.3702,-0.3702,0,0,-0.3875,-0.3882,-0.3904,-0.3925,-0.3947,-0.396,-0.3965,-0.3986,-0.3992,-0.3993,-0.3954,-0.3931,-0.3884,-0.3865,-0.3842,-0.3869,-0.3787,-0.3863,-0.391,-0.3854,-0.3854,-0.3854,-0.376,-0.3751,-0.3874,-0.3874,-0.3874,0,-0.3867,-0.3899,-0.3914,-0.3942,-0.3955,-0.3964,-0.3987,-0.4005,-0.4014,-0.4009,-0.4,-0.3947,-0.391,-0.3887,-0.391,-0.3887,-0.3823,-0.3878,-0.3862,-0.3861,-0.3859,-0.3763,-0.3752,-0.3878,-0.3878,-0.3877,-0.3877,0,-0.39,-0.3924,-0.3933,-0.3971,-0.3995,-0.4014,-0.4038,-0.4058,-0.4058,-0.4068,-0.405,-0.4014,-0.3976,-0.3982,-0.3952,-0.3935,-0.3881,-0.3873,-0.3836,-0.3866,-0.3762,-0.3749,-0.3884,-0.3883,-0.3881,-0.388,0,0,-0.385,-0.3941,-0.3935,-0.3954,-0.4008,-0.4019,-0.4061,-0.4086,-0.4085,-0.4107,-0.4095,-0.4083,-0.4058,-0.4031,-0.4,-0.3977,-0.3915,-0.3929,-0.3924,-0.3831,-0.375,-0.36,-0.357,-0.3899,-0.3897,-0.3896,-0.3675,0,-0.3852,-0.3914,-0.3963,-0.3997,-0.4015,-0.4051,-0.408,-0.4109,-0.4118,-0.4113,-0.41,-0.4071,-0.4077,-0.4047,-0.4029,-0.3924,-0.3886,-0.3973,-0.3739,-0.3731,-0.3591,-0.3552,-0.344,-0.3224,-0.3662,-0.3659,-0.3658,0,-0.3835,-0.3885,-0.3931,-0.3992,-0.3998,-0.4028,-0.4047,-0.4078,-0.4094,-0.4098,-0.4094,-0.4071,-0.403,-0.4036,-0.3893,-0.394,-0.3857,-0.3796,-0.3786,-0.3607,-0.3556,-0.3269,-0.3183,-0.3168,-0.3636,-0.3638,-0.364,0,-0.3748,-0.3836,-0.3869,-0.3892,-0.3978,-0.3992,-0.4024,-0.4058,-0.4045,-0.4072,-0.4033,-0.4025,-0.3929,-0.389,-0.3758,-0.3817,-0.3574,-0.3631,-0.3422,-0.3409,-0.3246,-0.322,-0.3112,-0.3542,-0.3543,-0.3543,-0.3544,0,-0.3702,-0.3715,-0.3829,-0.3839,-0.3857,-0.3932,-0.3918,-0.397,-0.3975,-0.3896,-0.3991,-0.3897,-0.3881,-0.3747,-0.3713,-0.3472,-0.3518,-0.3399,-0.3337,-0.3268,-0.3248,-0.3175,-0.3232,-0.3535,-0.3537,-0.3539,-0.354,0,-0.3588,-0.3664,-0.3698,-0.3795,-0.3813,-0.3815,-0.3837,-0.379,-0.3848,-0.3741,-0.3733,-0.3719,-0.3552,-0.351,-0.3366,-0.3313,-0.3116,-0.3101,-0.2998,-0.2929,-0.2762,-0.2828,-0.2624,-0.2549,-0.2851,-0.2846,-0.2842,0,-0.354,-0.3553,-0.364,-0.3609,-0.3645,-0.3655,-0.3612,-0.3704,-0.3624,-0.3589,-0.3477,-0.3368,-0.3227,-0.299,-0.291,-0.2786,-0.2849,-0.2598,-0.2719,-0.2699,-0.273,-0.2791,-0.2752,-0.2529,-0.2522,-0.2517,-0.2513,0,-0.3418,-0.3448,-0.3441,-0.3431,-0.3391,-0.3357,-0.3307,-0.3255,-0.327,-0.3215,-0.3068,-0.3001,-0.2802,-0.263,-0.2487,-0.2424,-0.2549,-0.2481,-0.2494,-0.2481,-0.2506,-0.2421,-0.2719,-0.2465,-0.247,-0.2473,-0.2476,-0.2478,-0.3265,-0.3235,-0.3211,-0.3163,-0.3109,-0.2996,-0.29,-0.2846,-0.2744,-0.2603,-0.2652,-0.252,-0.245,-0.2263,-0.2173,-0.2027,-0.2161,-0.2024,-0.2103,-0.2164,-0.2106,-0.2271,-0.1938,-0.194,-0.1941,-0.1942,-0.1944,0,-0.3052,-0.2999,-0.2935,-0.283,-0.2655,-0.2748,-0.2607,-0.2477,-0.2299,-0.2262,-0.216,-0.2095,-0.1962,-0.1939,-0.1827,-0.1724,-0.1728,-0.1685,-0.1797,-0.1774,-0.192,-0.1921,-0.1527,-0.1527,-0.1527,-0.1527,-0.1527,-0.1527,-0.2909,-0.276,-0.2729,-0.2381,-0.2297,-0.2056,-0.1954,-0.1855,-0.1802,-0.1666,-0.1649,-0.1682,-0.1727,-0.1857,-0.1726,-0.1624,-0.1628,-0.1537,-0.1588,-0.1775,-0.1816,-0.1856,-0.1869,-0.147,-0.147,-0.138,-0.138,-0.1379]},{"header":{"parameterUnit":"m.s-1","parameterCategory":2,"la1":30.2991,"la2":30.254,"lo1":-89.0895,"lo2":-89.0444,"dy":0.0017,"dx":0.0017,"nx":28,"ny":28,"refTime":"2024-03-02T09:00:00:Z","depth":"0","parameterNumber":3,"parameterNumberName":"V-component_of_CURRENTS"},"data":[0,0,0,0,0,0,0,0,0,0,0,0,0,0,0,0,0,0,0,0,0,0,0,0,0,0,0,0,0,0,0,0,0,0,0,0,0,0,0,0,0,0,0,0,0,0,0,0,0,0,0,0,0,0,0,0,0,0,-0.0226,-0.0224,0,-0.0013,-0.0011,-0.0008,0.0067,0.0066,0.0065,0.0064,0.0171,0.0174,0.0178,0,0,0,0,0,0,0,0,0,0,0,0,0,-0.0468,-0.0465,-0.0226,-0.0223,-0.0221,-0.0014,-0.0011,-0.0008,0.0067,0.0066,0.0065,0.0064,0.017,0.0174,0.0178,0,0,0,0,0,0,0,0,0,0,0,0,0,-0.032,-0.0464,-0.0226,-0.0159,-0.0151,-0.0014,-0.0011,-0.0007,0.0067,0.0066,0.0065,0.0063,0.0168,0.0174,0.0179,0.0238,0,0,0.0195,0.0198,0,0,0,0,0,0,0,0,-0.0329,-0.0311,-0.0171,-0.0163,-0.0154,-0.0002,-0.0057,0.0069,0.0068,-0.0015,0.0064,0.0063,0.0104,0.0115,0.016,0.0243,0.0247,0.0196,0.0199,0.0202,0.0203,0,0,0,0,0,0,0,-0.0339,-0.0319,-0.0141,-0.0169,-0.0158,-0.0105,-0.0087,-0.0032,0.0047,-0.0008,-0.0002,0.0021,0.0108,0.0155,0.0162,0.0249,0.0196,0.0201,0.0204,0.0206,0.0347,0.0348,0,0,0,0,0,0,-0.0369,-0.0329,-0.0148,-0.0135,-0.0247,-0.0101,-0.0079,-0.0049,0.0049,0.0064,0.0022,0.0024,0.0146,0.0156,0.0166,0.0203,0.0202,0.0207,0.021,0.0347,0.0347,0.0348,0,0,0,0,0,0,-0.0375,-0.0355,-0.0156,-0.0228,-0.02,-0.0096,-0.0061,-0.0044,-0.0006,0.0073,0.0085,0.0039,0.0145,0.0159,0.0201,0.0208,0.0209,0.0214,0.0346,0.0347,0.0348,0.03,0,0,0,0,0,0,-0.0383,-0.0358,-0.0358,-0.023,-0.0197,-0.0094,-0.006,-0.0039,0.001,0.0014,0.0092,0.0102,0.0145,0.0192,0.0206,0.0216,0.0218,0.0346,0.0347,0.0347,0.0301,0.0299,0.0297,0,0,0,0,0,-0.0392,-0.0383,-0.0359,-0.0338,-0.0195,-0.0094,-0.0072,-0.0002,0.0011,0.0027,0.0076,0.0099,0.0208,0.0197,0.0213,0.0225,0.0345,0.0346,0.0347,0.0302,0.0299,0.0297,0,0,0,0,0,0,-0.0479,-0.037,-0.0342,-0.0298,-0.0214,-0.0082,-0.0059,-0.0008,0.005,0.0042,0.011,0.0124,0.0162,0.0202,0.0188,0.0268,0.0279,0.0284,0.0239,0.0237,0.0236,0.0205,0.0223,0,0,0,0,0,-0.0501,-0.0468,-0.0354,-0.0319,-0.0284,-0.0175,-0.013,-0.008,-0.0004,0.0022,0.0083,0.0137,0.0186,0.0213,0.0262,0.0311,0.034,0.0328,0.0326,0.0324,0.0311,0.0392,0.0396,0.0352,0.0352,0.0352,0,0,-0.0524,-0.0459,-0.0441,-0.0337,-0.0267,-0.0218,-0.0151,-0.0087,-0.0052,0.0022,0.0075,0.013,0.0196,0.0246,0.0267,0.0276,0.0345,0.0326,0.0323,0.0311,0.0394,0.0398,0.0402,0.0352,0.0352,0.0352,0,0,-0.0552,-0.0498,-0.0485,-0.0425,-0.0332,-0.0258,-0.0248,-0.0126,-0.0084,-0.002,0.0036,0.0099,0.0178,0.0241,0.0276,0.0297,0.0329,0.0305,0.028,0.036,0.0364,0.0368,0.0375,0.0381,0.031,0.031,0.031,0,-0.0594,-0.0552,-0.0466,-0.0438,-0.0396,-0.0286,-0.0264,-0.0194,-0.0075,-0.0039,-0.0024,0.0122,0.018,0.0255,0.0258,0.0294,0.0313,0.0281,0.0356,0.0362,0.0367,0.0374,0.038,0.0308,0.0308,0.0309,0.0309,0,-0.0606,-0.0582,-0.0566,-0.0498,-0.0442,-0.0402,-0.0299,-0.0243,-0.0181,-0.0105,-0.0021,0.0077,0.0161,0.0197,0.0231,0.03,0.029,0.0339,0.0357,0.0368,0.0375,0.0382,0.0305,0.0306,0.0306,0.0307,0,0,-0.0691,-0.0598,-0.06,-0.0586,-0.0476,-0.0431,-0.037,-0.0276,-0.0244,-0.0131,-0.0078,0.0037,0.0098,0.0141,0.0214,0.0287,0.0335,0.0314,0.0319,0.031,0.0451,0.0486,0.0498,0.0398,0.0399,0.0401,0.0428,0,-0.0736,-0.072,-0.0645,-0.0627,-0.0612,-0.0498,-0.045,-0.0356,-0.0269,-0.0192,-0.0068,0.0001,0.0075,0.0108,0.0198,0.0302,0.0358,0.0319,0.0451,0.0453,0.0478,0.0511,0.0583,0.0619,0.0435,0.0437,0.0438,0,-0.079,-0.0769,-0.0769,-0.07,-0.0682,-0.0654,-0.0562,-0.05,-0.0364,-0.03,-0.0189,-0.0094,0.0028,0.0086,0.0272,0.0238,0.0327,0.041,0.0415,0.0471,0.0505,0.0588,0.064,0.0828,0.045,0.0449,0.0448,0,-0.0913,-0.086,-0.0868,-0.0846,-0.0748,-0.073,-0.0671,-0.0547,-0.05,-0.0372,-0.0335,-0.0165,-0.0095,0.0066,0.024,0.0253,0.0425,0.0477,0.0586,0.0586,0.0686,0.0693,0.0933,0.0599,0.0599,0.0599,0.0599,0,-0.0998,-0.1008,-0.0937,-0.0946,-0.0956,-0.0846,-0.0828,-0.0744,-0.0632,-0.0581,-0.0412,-0.0342,-0.0094,0.0046,0.0205,0.0408,0.0405,0.0576,0.0614,0.0667,0.0672,0.0871,0.0944,0.06,0.06,0.06,0.06,0,-0.1134,-0.1082,-0.1097,-0.1032,-0.1019,-0.1032,-0.0943,-0.0912,-0.0804,-0.0736,-0.0703,-0.0485,-0.0279,-0.0052,0.0202,0.0354,0.0673,0.0613,0.0619,0.066,0.096,0.1025,0.124,0.1365,0.0749,0.075,0.0751,0,-0.1197,-0.1224,-0.1198,-0.1203,-0.118,-0.1168,-0.1143,-0.1026,-0.0977,-0.0812,-0.0782,-0.058,-0.0388,-0.0022,0.0293,0.0577,0.0729,0.0774,0.0848,0.099,0.1093,0.1119,0.1211,0.0936,0.0939,0.0941,0.0943,0,-0.132,-0.1315,-0.1314,-0.1338,-0.1335,-0.1315,-0.1268,-0.1259,-0.1102,-0.1024,-0.0855,-0.0694,-0.0302,0.0109,0.0467,0.064,0.0942,0.0826,0.1014,0.1292,0.13,0.1433,0.0843,0.0961,0.0959,0.0958,0.0957,0.0956,-0.1404,-0.1442,-0.1433,-0.1449,-0.1437,-0.1415,-0.1392,-0.1311,-0.123,-0.1029,-0.0898,-0.0569,-0.0016,0.055,0.0742,0.1177,0.1121,0.1321,0.1387,0.1398,0.1547,0.0955,0.1104,0.1103,0.1102,0.1102,0.1101,0,-0.1485,-0.15,-0.1526,-0.1512,-0.1486,-0.147,-0.1418,-0.1343,-0.1228,-0.0998,-0.0779,-0.0112,0.0436,0.0928,0.1516,0.1738,0.1803,0.183,0.1921,0.1992,0.1519,0.1561,0.177,0.177,0.1769,0.1769,0.1769,0.1769,-0.1519,-0.1561,-0.1564,-0.1533,-0.1509,-0.1458,-0.1421,-0.1302,-0.1113,-0.0686,-0.0274,0.0056,0.0725,0.1669,0.221,0.2248,0.2465,0.2413,0.252,0.223,0.2189,0.2149,0.221,0.2552,0.2553,0.3001,0.3005,0.3009]}],[{"header":{"parameterUnit":"m.s-1","parameterCategory":2,"la1":30.2991,"la2":30.254,"lo1":-89.0895,"lo2":-89.0444,"dy":0.0017,"dx":0.0017,"nx":28,"ny":28,"refTime":"2024-03-02T09:00:00:Z","depth":"2","parameterNumber":2,"parameterNumberName":"U-component_of_CURRENTS"},"data":[0,0,0,0,0,0,0,0,0,0,0,0,0,0,0,0,0,0,0,0,0,0,0,0,0,0,0,0,0,0,0,0,0,0,0,0,0,0,0,0,0,0,0,0,0,0,0,0,0,0,0,0,0,0,0,0,0,0,-0.2895,-0.2895,0,-0.2893,-0.2892,-0.2892,-0.2911,-0.2912,-0.2913,-0.2914,-0.2907,-0.2906,-0.2904,0,0,0,0,0,0,0,0,0,0,0,0,0,-0.2821,-0.2822,-0.2895,-0.2895,-0.2896,-0.2893,-0.2892,-0.2892,-0.2911,-0.2912,-0.2914,-0.2915,-0.2907,-0.2906,-0.2904,0,0,0,0,0,0,0,0,0,0,0,0,0,-0.2834,-0.2823,-0.2894,-0.2909,-0.2911,-0.2893,-0.2892,-0.2891,-0.2911,-0.2912,-0.2914,-0.2915,-0.2908,-0.2906,-0.2904,-0.2862,0,0,-0.2899,-0.2898,0,0,0,0,0,0,0,0,-0.2833,-0.2836,-0.2906,-0.2908,-0.291,-0.2909,-0.2864,-0.2883,-0.291,-0.2905,-0.2914,-0.2916,-0.2909,-0.2907,-0.2896,-0.2861,-0.2861,-0.2899,-0.2898,-0.2897,-0.2896,0,0,0,0,0,0,0,-0.2833,-0.2836,-0.2888,-0.2907,-0.2909,-0.2884,-0.2888,-0.2867,-0.2894,-0.2905,-0.2908,-0.2916,-0.291,-0.2897,-0.2896,-0.2861,-0.2899,-0.2897,-0.2896,-0.2895,-0.2936,-0.2939,0,0,0,0,0,0,-0.2848,-0.2836,-0.2888,-0.2889,-0.2881,-0.2885,-0.2889,-0.2903,-0.2894,-0.2896,-0.2915,-0.2917,-0.29,-0.2898,-0.2896,-0.2964,-0.2897,-0.2895,-0.2894,-0.2934,-0.2937,-0.2939,0,0,0,0,0,0,-0.2846,-0.2852,-0.2888,-0.2866,-0.287,-0.2886,-0.29,-0.2902,-0.2911,-0.2903,-0.2904,-0.2925,-0.2901,-0.2898,-0.2918,-0.296,-0.2894,-0.2893,-0.2932,-0.2935,-0.2938,-0.3025,0,0,0,0,0,0,-0.2844,-0.2852,-0.2862,-0.2867,-0.2872,-0.2908,-0.29,-0.2901,-0.2915,-0.2918,-0.2911,-0.2911,-0.2902,-0.2921,-0.2916,-0.2956,-0.2891,-0.2929,-0.2933,-0.2937,-0.302,-0.3031,-0.3041,0,0,0,0,0,-0.2841,-0.2846,-0.2862,-0.2868,-0.2887,-0.291,-0.291,-0.2921,-0.2914,-0.293,-0.2933,-0.2912,-0.2944,-0.292,-0.2914,-0.2955,-0.2927,-0.2932,-0.2937,-0.3015,-0.3029,-0.3041,0,0,0,0,0,0,-0.2793,-0.2849,-0.2867,-0.2882,-0.2913,-0.2916,-0.2914,-0.2926,-0.2935,-0.2938,-0.2924,-0.2925,-0.2969,-0.2943,-0.2918,-0.2983,-0.2937,-0.2941,-0.2999,-0.3012,-0.3022,-0.2998,-0.289,0,0,0,0,0,-0.2795,-0.2833,-0.2869,-0.2884,-0.2892,-0.2904,-0.291,-0.2934,-0.2944,-0.2949,-0.2945,-0.2951,-0.2977,-0.298,-0.2992,-0.3003,-0.2938,-0.3032,-0.3042,-0.3051,-0.3031,-0.2976,-0.2978,-0.2955,-0.2955,-0.2955,0,0,-0.2786,-0.2816,-0.2839,-0.288,-0.2887,-0.292,-0.291,-0.2935,-0.2977,-0.2944,-0.2975,-0.2986,-0.2992,-0.3032,-0.3047,-0.3017,-0.3027,-0.3057,-0.3065,-0.3039,-0.2981,-0.2983,-0.2984,-0.2958,-0.2958,-0.2957,0,0,-0.2786,-0.2803,-0.284,-0.2872,-0.2914,-0.2928,-0.2944,-0.2968,-0.299,-0.3033,-0.3034,-0.3059,-0.308,-0.3093,-0.3104,-0.3168,-0.3093,-0.319,-0.321,-0.3159,-0.3159,-0.3158,-0.308,-0.3071,-0.3185,-0.3185,-0.3185,0,-0.2779,-0.2814,-0.285,-0.2888,-0.2905,-0.2938,-0.2969,-0.3004,-0.3041,-0.3047,-0.3065,-0.3092,-0.311,-0.3139,-0.319,-0.319,-0.3134,-0.3162,-0.3168,-0.3166,-0.3164,-0.3084,-0.3073,-0.319,-0.3189,-0.3189,-0.3188,0,-0.2798,-0.284,-0.2849,-0.2922,-0.2953,-0.2976,-0.3037,-0.3068,-0.3095,-0.3123,-0.3162,-0.3179,-0.3179,-0.3221,-0.3235,-0.3243,-0.32,-0.3194,-0.3127,-0.3171,-0.3084,-0.3072,-0.3197,-0.3195,-0.3194,-0.3192,0,0,-0.2748,-0.285,-0.2854,-0.2895,-0.2965,-0.2992,-0.3057,-0.3103,-0.3124,-0.3179,-0.318,-0.3263,-0.3242,-0.3252,-0.3261,-0.3244,-0.3211,-0.3222,-0.3217,-0.3128,-0.3069,-0.2988,-0.2966,-0.3203,-0.3202,-0.3201,-0.3014,0,-0.2745,-0.2811,-0.2869,-0.2938,-0.2963,-0.3023,-0.308,-0.3141,-0.3172,-0.3187,-0.3213,-0.3234,-0.3265,-0.3266,-0.3254,-0.3225,-0.3182,-0.326,-0.3053,-0.3046,-0.2955,-0.295,-0.2772,-0.2586,-0.3001,-0.2999,-0.2997,0,-0.273,-0.2776,-0.283,-0.2937,-0.2952,-0.3013,-0.3059,-0.3121,-0.3166,-0.3185,-0.3186,-0.3198,-0.3195,-0.3215,-0.3133,-0.3179,-0.3125,-0.3097,-0.3089,-0.2965,-0.2941,-0.2611,-0.2546,-0.2975,-0.2977,-0.2978,-0.298,0,-0.2634,-0.2748,-0.2782,-0.2816,-0.294,-0.2979,-0.304,-0.3104,-0.3117,-0.3158,-0.3141,-0.3146,-0.3119,-0.3074,-0.3041,-0.3075,-0.2927,-0.2952,-0.2811,-0.2804,-0.2583,-0.2559,-0.2861,-0.2861,-0.2862,-0.2862,-0.2863,0,-0.258,-0.2616,-0.2751,-0.2768,-0.2815,-0.2932,-0.2955,-0.3024,-0.3058,-0.304,-0.3113,-0.3068,-0.3085,-0.3018,-0.2992,-0.2846,-0.2865,-0.2787,-0.2746,-0.2612,-0.2593,-0.2882,-0.2887,-0.2855,-0.2857,-0.2858,-0.2859,0,-0.2472,-0.2553,-0.2606,-0.2735,-0.2771,-0.2803,-0.2885,-0.2889,-0.2961,-0.2921,-0.2927,-0.2966,-0.2895,-0.2881,-0.2795,-0.2746,-0.2651,-0.2592,-0.2429,-0.2372,-0.2568,-0.2581,-0.2392,-0.2388,-0.2384,-0.2381,-0.2378,0,-0.2414,-0.2434,-0.2547,-0.2555,-0.2614,-0.2669,-0.2689,-0.2803,-0.2793,-0.2836,-0.2794,-0.2768,-0.2698,-0.2554,-0.2491,-0.2373,-0.2495,-0.2144,-0.2191,-0.2539,-0.2518,-0.2537,-0.2553,-0.1924,-0.1918,-0.1913,-0.1909,0,-0.229,-0.2341,-0.2372,-0.2398,-0.2429,-0.2452,-0.2503,-0.2484,-0.2587,-0.2571,-0.2539,-0.2505,-0.2407,-0.2226,-0.2123,-0.205,-0.2162,-0.2036,-0.2393,-0.2099,-0.209,-0.2074,-0.2106,-0.1864,-0.1869,-0.1872,-0.1874,-0.1876,-0.2172,-0.2162,-0.2199,-0.2213,-0.2241,-0.2234,-0.219,-0.2236,-0.2208,-0.2167,-0.2241,-0.2127,-0.2118,-0.1863,-0.1753,-0.1684,-0.1843,-0.1771,-0.1788,-0.1811,-0.1819,-0.1807,-0.1526,-0.1528,-0.1531,-0.1532,-0.1534,0,-0.2003,-0.2009,-0.2007,-0.2008,-0.1971,-0.2056,-0.2045,-0.1973,-0.1892,-0.1883,-0.1829,-0.1632,-0.1504,-0.1503,-0.1323,-0.1291,-0.1308,-0.1239,-0.1267,-0.1311,-0.1351,-0.134,-0.0916,-0.0914,-0.0913,-0.0911,0,0,-0.19,-0.1832,-0.1841,-0.1731,-0.1741,-0.164,-0.1604,-0.1538,-0.1498,-0.1379,-0.1312,-0.139,-0.1437,-0.1171,-0.1117,-0.0981,-0.1135,-0.0929,-0.1423,-0.1498,-0.1536,-0.1652,-0.1683,0,0,0,0,0]},{"header":{"parameterUnit":"m.s-1","parameterCategory":2,"la1":30.2991,"la2":30.254,"lo1":-89.0895,"lo2":-89.0444,"dy":0.0017,"dx":0.0017,"nx":28,"ny":28,"refTime":"2024-03-02T09:00:00:Z","depth":"2","parameterNumber":3,"parameterNumberName":"V-component_of_CURRENTS"},"data":[0,0,0,0,0,0,0,0,0,0,0,0,0,0,0,0,0,0,0,0,0,0,0,0,0,0,0,0,0,0,0,0,0,0,0,0,0,0,0,0,0,0,0,0,0,0,0,0,0,0,0,0,0,0,0,0,0,0,-0.0381,-0.038,0,-0.0235,-0.0233,-0.0231,-0.0156,-0.0156,-0.0155,-0.0155,0.0,0.0004,0.0008,0,0,0,0,0,0,0,0,0,0,0,0,0,-0.0505,-0.0504,-0.0381,-0.0379,-0.0378,-0.0235,-0.0233,-0.0231,-0.0156,-0.0156,-0.0155,-0.0155,-0.0001,0.0004,0.0008,0,0,0,0,0,0,0,0,0,0,0,0,0,-0.0415,-0.0503,-0.0382,-0.0322,-0.0315,-0.0235,-0.0233,-0.023,-0.0156,-0.0156,-0.0155,-0.0155,-0.0003,0.0003,0.0009,0.0041,0,0,0.0027,0.003,0,0,0,0,0,0,0,0,-0.0421,-0.0411,-0.0333,-0.0326,-0.0318,-0.0212,-0.0219,-0.0139,-0.0156,-0.0217,-0.0155,-0.0155,-0.007,-0.0058,-0.0033,0.0048,0.0055,0.0028,0.0031,0.0034,0.0036,0,0,0,0,0,0,0,-0.0427,-0.0416,-0.0324,-0.0331,-0.0322,-0.0271,-0.0259,-0.0203,-0.0147,-0.0212,-0.0206,-0.0188,-0.0066,-0.0039,-0.0028,0.0057,0.0028,0.0033,0.0037,0.0039,0.0179,0.0179,0,0,0,0,0,0,-0.0448,-0.0423,-0.0329,-0.032,-0.0369,-0.027,-0.0256,-0.0247,-0.0148,-0.0132,-0.0188,-0.0185,-0.0049,-0.0035,-0.0023,0.0025,0.0034,0.0039,0.0043,0.0178,0.0179,0.0179,0,0,0,0,0,0,-0.0452,-0.0442,-0.0335,-0.0366,-0.0349,-0.0268,-0.0259,-0.0245,-0.0216,-0.013,-0.0114,-0.0175,-0.0048,-0.0031,0.0024,0.0032,0.0042,0.0048,0.0178,0.0178,0.0179,0.0118,0,0,0,0,0,0,-0.0456,-0.0444,-0.045,-0.0368,-0.0348,-0.0294,-0.0258,-0.0242,-0.0205,-0.0199,-0.0113,-0.0098,-0.0047,0.0015,0.003,0.004,0.0052,0.0178,0.0178,0.0179,0.012,0.0117,0.0113,0,0,0,0,0,-0.0461,-0.047,-0.0451,-0.044,-0.0358,-0.0294,-0.0279,-0.0221,-0.0205,-0.0195,-0.0138,-0.0101,0.0027,0.002,0.0038,0.005,0.0178,0.0178,0.0179,0.0122,0.0117,0.0114,0,0,0,0,0,0,-0.0518,-0.046,-0.0439,-0.0428,-0.0369,-0.0281,-0.0267,-0.0227,-0.0173,-0.0171,-0.0095,-0.0076,-0.0024,0.0018,0.0008,0.0089,0.0108,0.0111,0.0058,0.0055,0.0051,0.003,0.0057,0,0,0,0,0,-0.0537,-0.0533,-0.0459,-0.0449,-0.0427,-0.035,-0.0319,-0.0277,-0.0215,-0.0191,-0.0129,-0.0067,-0.0008,0.0025,0.0082,0.0126,0.0166,0.0144,0.0141,0.0138,0.0132,0.0207,0.021,0.018,0.018,0.018,0,0,-0.0554,-0.0522,-0.0518,-0.0462,-0.0415,-0.0387,-0.0331,-0.0289,-0.0264,-0.0183,-0.0139,-0.0075,0.0001,0.0053,0.008,0.0088,0.0163,0.0138,0.0135,0.0131,0.0207,0.021,0.0213,0.018,0.018,0.018,0,0,-0.0586,-0.0561,-0.0569,-0.053,-0.0469,-0.0418,-0.0411,-0.0327,-0.0292,-0.0238,-0.0175,-0.0111,-0.0025,0.0036,0.0076,0.0087,0.0142,0.0104,0.0074,0.0146,0.0149,0.0153,0.0185,0.0191,0.0103,0.0103,0.0103,0,-0.0611,-0.0608,-0.0557,-0.0551,-0.0525,-0.044,-0.0432,-0.0381,-0.0289,-0.0259,-0.0237,-0.0095,-0.0032,0.0043,0.0047,0.008,0.0116,0.0082,0.0141,0.0146,0.015,0.0183,0.0191,0.01,0.01,0.01,0.0101,0,-0.0642,-0.064,-0.0639,-0.0609,-0.0574,-0.0551,-0.0477,-0.0438,-0.0386,-0.0324,-0.0242,-0.0147,-0.0064,-0.003,0.0013,0.0079,0.0091,0.0128,0.0149,0.0149,0.0183,0.0193,0.0096,0.0097,0.0098,0.0098,0,0,-0.0702,-0.0671,-0.0672,-0.0669,-0.0606,-0.0577,-0.0542,-0.0474,-0.0445,-0.0354,-0.0306,-0.0195,-0.0136,-0.0088,-0.0014,0.0053,0.0111,0.0095,0.01,0.0119,0.0246,0.0286,0.03,0.0163,0.0165,0.0166,0.0249,0,-0.0741,-0.076,-0.0722,-0.0722,-0.0723,-0.0644,-0.0614,-0.0543,-0.0472,-0.0404,-0.0294,-0.0219,-0.016,-0.0114,-0.004,0.0084,0.0137,0.0083,0.0248,0.0252,0.0284,0.0314,0.0283,0.0359,0.0258,0.026,0.0261,0,-0.0787,-0.0794,-0.0816,-0.0783,-0.0774,-0.0758,-0.0694,-0.065,-0.0538,-0.0482,-0.0389,-0.0294,-0.018,-0.0132,0.0058,0.0022,0.0117,0.0206,0.0213,0.0279,0.0312,0.0348,0.038,0.0278,0.0276,0.0275,0.0274,0,-0.0862,-0.0855,-0.0879,-0.087,-0.082,-0.0813,-0.0774,-0.0681,-0.0638,-0.0529,-0.0482,-0.0338,-0.0253,-0.0109,0.0073,0.007,0.0278,0.0298,0.0416,0.0418,0.0439,0.0441,0.0418,0.0418,0.0418,0.0417,0.0417,0,-0.092,-0.0936,-0.0922,-0.0934,-0.0948,-0.0886,-0.0867,-0.0809,-0.0717,-0.0658,-0.053,-0.0447,-0.0238,-0.0086,0.0059,0.027,0.0268,0.0415,0.0455,0.0415,0.0414,0.0385,0.0381,0.0421,0.042,0.0419,0.0419,0,-0.0989,-0.0981,-0.1008,-0.0989,-0.0987,-0.0996,-0.0938,-0.091,-0.0822,-0.0744,-0.0709,-0.0518,-0.0313,-0.0112,0.0136,0.0259,0.045,0.0518,0.0437,0.0468,0.0533,0.0524,0.0651,0.0653,0.0655,0.0657,0.0658,0,-0.1022,-0.105,-0.1065,-0.108,-0.1076,-0.1074,-0.106,-0.098,-0.0937,-0.0773,-0.0733,-0.0527,-0.0352,0.0008,0.0259,0.0512,0.0508,0.0618,0.0618,0.0537,0.0563,0.0551,0.0539,0.0606,0.0607,0.0608,0.0609,0,-0.1081,-0.1091,-0.1107,-0.1149,-0.1161,-0.1158,-0.1131,-0.1114,-0.0992,-0.0904,-0.0731,-0.058,-0.0232,0.0073,0.0389,0.0527,0.0578,0.0642,0.0608,0.0556,0.0504,0.0526,0.0515,0.0615,0.0614,0.0614,0.0614,0.0613,-0.1114,-0.1146,-0.1169,-0.1199,-0.1215,-0.1213,-0.1195,-0.1133,-0.1051,-0.0866,-0.0734,-0.0461,-0.0197,0.029,0.0496,0.0681,0.0676,0.0723,0.0717,0.0711,0.0695,0.0651,0.0784,0.0784,0.0784,0.0784,0.0785,0,-0.1136,-0.1168,-0.1206,-0.1231,-0.1241,-0.1243,-0.1206,-0.1143,-0.1028,-0.0836,-0.0635,-0.0294,0.0034,0.0298,0.0609,0.0786,0.0752,0.0797,0.072,0.0713,0.0707,0.0687,0.0776,0.0776,0.0777,0.0777,0,0,-0.1144,-0.1184,-0.1202,-0.123,-0.1245,-0.1231,-0.1202,-0.1092,-0.094,-0.0712,-0.0495,-0.0232,0.0079,0.0302,0.0505,0.0656,0.0633,0.0657,0.0645,0.0522,0.0514,0.0646,0.0606,0,0,0,0,0]}],[{"header":{"parameterUnit":"m.s-1","parameterCategory":2,"la1":30.2991,"la2":30.254,"lo1":-89.0895,"lo2":-89.0444,"dy":0.0017,"dx":0.0017,"nx":28,"ny":28,"refTime":"2024-03-02T09:00:00:Z","depth":"4","parameterNumber":2,"parameterNumberName":"U-component_of_CURRENTS"},"data":[0,0,0,0,0,0,0,0,0,0,0,0,0,0,0,0,0,0,0,0,0,0,0,0,0,0,0,0,0,0,0,0,0,0,0,0,0,0,0,0,0,0,0,0,0,0,0,0,0,0,0,0,0,0,0,0,0,0,-0.1451,-0.1452,0,-0.1517,-0.1517,-0.1517,-0.1533,-0.1533,-0.1533,-0.1533,-0.1613,-0.1615,-0.1617,0,0,0,0,0,0,0,0,0,0,0,0,0,-0.14,-0.14,-0.1451,-0.1452,-0.1453,-0.1517,-0.1517,-0.1517,-0.1533,-0.1533,-0.1533,-0.1533,-0.1612,-0.1614,-0.1617,0,0,0,0,0,0,0,0,0,0,0,0,0,-0.1434,-0.14,-0.145,-0.1473,-0.1476,-0.1517,-0.1517,-0.1517,-0.1533,-0.1533,-0.1533,-0.1533,-0.1611,-0.1614,-0.1617,-0.1634,0,0,-0.1627,-0.1628,0,0,0,0,0,0,0,0,-0.1432,-0.1435,-0.1468,-0.1472,-0.1475,-0.1522,-0.1529,-0.1559,-0.1533,-0.1505,-0.1533,-0.1533,-0.1587,-0.1592,-0.1596,-0.1637,-0.1641,-0.1627,-0.1629,-0.163,-0.1631,0,0,0,0,0,0,0,-0.1429,-0.1433,-0.1471,-0.147,-0.1474,-0.1502,-0.1505,-0.1534,-0.154,-0.1508,-0.151,-0.1527,-0.1588,-0.1593,-0.1598,-0.1642,-0.1627,-0.1629,-0.1631,-0.1633,-0.1806,-0.1809,0,0,0,0,0,0,-0.1429,-0.143,-0.1469,-0.1473,-0.146,-0.1502,-0.1506,-0.1502,-0.154,-0.1548,-0.1527,-0.1528,-0.1588,-0.1595,-0.1601,-0.1705,-0.163,-0.1633,-0.1635,-0.1804,-0.1807,-0.181,0,0,0,0,0,0,-0.1427,-0.1431,-0.1466,-0.1459,-0.1466,-0.1503,-0.1498,-0.1503,-0.1539,-0.1555,-0.1562,-0.1561,-0.1588,-0.1597,-0.1659,-0.1705,-0.1634,-0.1637,-0.18,-0.1805,-0.1808,-0.1859,0,0,0,0,0,0,-0.1425,-0.1429,-0.1437,-0.1458,-0.1467,-0.1509,-0.1499,-0.1505,-0.155,-0.1552,-0.1587,-0.1592,-0.1589,-0.1654,-0.1662,-0.1708,-0.1639,-0.1797,-0.1802,-0.1807,-0.1854,-0.1865,-0.1874,0,0,0,0,0,-0.1423,-0.1432,-0.1436,-0.1442,-0.1471,-0.1511,-0.1517,-0.1541,-0.1552,-0.1572,-0.1603,-0.1593,-0.1693,-0.1659,-0.1667,-0.1715,-0.1794,-0.1801,-0.1807,-0.185,-0.1863,-0.1874,0,0,0,0,0,0,-0.1419,-0.1436,-0.1441,-0.1456,-0.149,-0.1516,-0.1546,-0.1562,-0.1601,-0.1612,-0.1622,-0.1631,-0.1703,-0.1709,-0.1671,-0.1784,-0.1745,-0.1753,-0.1775,-0.1787,-0.1797,-0.1789,-0.1642,0,0,0,0,0,-0.142,-0.143,-0.1457,-0.1475,-0.1495,-0.1526,-0.1552,-0.1568,-0.1603,-0.162,-0.1652,-0.1691,-0.1731,-0.1759,-0.1791,-0.1851,-0.1832,-0.1892,-0.1902,-0.191,-0.1912,-0.1902,-0.191,-0.183,-0.183,-0.183,0,0,-0.1433,-0.1439,-0.1451,-0.1476,-0.1505,-0.1541,-0.1541,-0.1588,-0.1625,-0.1625,-0.1696,-0.1727,-0.1756,-0.1821,-0.1855,-0.1834,-0.193,-0.1918,-0.1924,-0.1922,-0.1909,-0.1917,-0.1923,-0.1835,-0.1834,-0.1833,0,0,-0.1448,-0.1462,-0.1473,-0.1506,-0.1551,-0.1573,-0.1596,-0.1643,-0.1671,-0.1741,-0.1752,-0.1802,-0.1881,-0.1894,-0.1914,-0.2,-0.1981,-0.2037,-0.2079,-0.2071,-0.2076,-0.208,-0.2084,-0.2088,-0.2042,-0.2042,-0.2042,0,-0.1458,-0.1473,-0.149,-0.1514,-0.1549,-0.1593,-0.1627,-0.1667,-0.1732,-0.176,-0.1777,-0.1885,-0.1906,-0.1966,-0.2006,-0.2018,-0.2022,-0.2025,-0.2079,-0.2082,-0.2086,-0.2088,-0.2092,-0.2045,-0.2045,-0.2045,-0.2044,0,-0.1478,-0.1507,-0.1528,-0.1564,-0.16,-0.1648,-0.1697,-0.1748,-0.1799,-0.1835,-0.1922,-0.1957,-0.2011,-0.2044,-0.2058,-0.2113,-0.2113,-0.2086,-0.2036,-0.2096,-0.2096,-0.2099,-0.205,-0.2049,-0.2048,-0.2047,0,0,-0.1449,-0.1524,-0.1534,-0.1564,-0.1633,-0.1663,-0.1732,-0.1795,-0.1845,-0.1922,-0.1976,-0.2063,-0.2086,-0.2111,-0.2135,-0.2149,-0.2185,-0.2149,-0.2147,-0.2131,-0.219,-0.203,-0.2017,-0.2173,-0.2173,-0.2174,-0.2186,0,-0.1462,-0.1512,-0.1548,-0.162,-0.1652,-0.1715,-0.1777,-0.184,-0.1902,-0.1969,-0.2017,-0.2087,-0.2111,-0.215,-0.2168,-0.2184,-0.2194,-0.2185,-0.2154,-0.2153,-0.1983,-0.2014,-0.2176,-0.2188,-0.2188,-0.2189,-0.2189,0,-0.1458,-0.1493,-0.1555,-0.1642,-0.1665,-0.172,-0.181,-0.1874,-0.1966,-0.201,-0.2075,-0.2119,-0.2181,-0.2176,-0.2218,-0.2222,-0.2217,-0.2218,-0.2217,-0.2045,-0.1995,-0.2114,-0.2193,-0.2193,-0.2193,-0.2192,-0.2192,0,-0.1407,-0.1497,-0.1548,-0.1582,-0.1685,-0.173,-0.1797,-0.189,-0.1946,-0.2038,-0.2085,-0.215,-0.2198,-0.2204,-0.2228,-0.2234,-0.2249,-0.2234,-0.2082,-0.2071,-0.2189,-0.2184,-0.2235,-0.2235,-0.2235,-0.2235,-0.2235,0,-0.1385,-0.1424,-0.1539,-0.1567,-0.1634,-0.1718,-0.1798,-0.1866,-0.1967,-0.2028,-0.211,-0.2151,-0.2214,-0.2236,-0.2232,-0.2162,-0.2241,-0.2087,-0.2054,-0.2216,-0.2214,-0.2191,-0.2186,-0.2235,-0.2235,-0.2235,-0.2235,0,-0.1305,-0.1384,-0.145,-0.1574,-0.161,-0.1662,-0.179,-0.1849,-0.1958,-0.2032,-0.2067,-0.217,-0.2186,-0.2214,-0.222,-0.215,-0.2101,-0.2051,-0.2238,-0.2217,-0.1936,-0.1935,-0.1879,-0.1873,-0.1868,-0.1864,-0.1861,0,-0.1263,-0.1292,-0.1437,-0.1471,-0.153,-0.162,-0.1681,-0.1816,-0.1877,-0.2023,-0.2048,-0.2115,-0.2154,-0.2032,-0.2073,-0.2013,-0.1986,-0.1956,-0.1935,-0.1921,-0.1896,-0.1902,-0.1907,-0.1853,-0.1852,-0.185,-0.1849,0,-0.1171,-0.1246,-0.1304,-0.1389,-0.1461,-0.1536,-0.1639,-0.167,-0.1827,-0.1941,-0.1956,-0.1945,-0.1949,-0.1927,-0.1886,-0.185,-0.197,-0.1904,-0.1914,-0.1895,-0.1889,-0.187,-0.1881,-0.1832,-0.1835,-0.1836,-0.1837,0,-0.1103,-0.1126,-0.122,-0.1281,-0.1378,-0.1436,-0.1499,-0.1567,-0.1639,-0.1807,-0.1801,-0.1857,-0.1935,-0.1842,-0.181,-0.1747,-0.1718,-0.1662,-0.1684,-0.1703,-0.1634,-0.16,-0.1419,0,0,0,0,0,-0.1022,-0.1031,-0.1094,-0.117,-0.1278,-0.1328,-0.1467,-0.1542,-0.1691,-0.1651,-0.172,-0.1705,-0.1651,-0.1684,-0.1575,-0.1725,-0.1727,-0.1593,-0.1675,-0.1738,-0.1757,-0.1688,0,0,0,0,0,0,-0.0961,-0.1,-0.1048,-0.1076,-0.1109,-0.1207,-0.1293,-0.1391,-0.1382,-0.1522,-0.1497,-0.1585,-0.1554,-0.1668,-0.1531,-0.1537,-0.1549,-0.1628,-0.1623,-0.1727,-0.1744,-0.176,-0.1696,0,0,0,0,0]},{"header":{"parameterUnit":"m.s-1","parameterCategory":2,"la1":30.2991,"la2":30.254,"lo1":-89.0895,"lo2":-89.0444,"dy":0.0017,"dx":0.0017,"nx":28,"ny":28,"refTime":"2024-03-02T09:00:00:Z","depth":"4","parameterNumber":3,"parameterNumberName":"V-component_of_CURRENTS"},"data":[0,0,0,0,0,0,0,0,0,0,0,0,0,0,0,0,0,0,0,0,0,0,0,0,0,0,0,0,0,0,0,0,0,0,0,0,0,0,0,0,0,0,0,0,0,0,0,0,0,0,0,0,0,0,0,0,0,0,-0.0392,-0.0391,0,-0.0357,-0.0356,-0.0356,-0.0339,-0.0339,-0.0339,-0.0339,-0.023,-0.0228,-0.0225,0,0,0,0,0,0,0,0,0,0,0,0,0,-0.0395,-0.0395,-0.0392,-0.0391,-0.0391,-0.0357,-0.0356,-0.0356,-0.0339,-0.0339,-0.0339,-0.0339,-0.0231,-0.0228,-0.0225,0,0,0,0,0,0,0,0,0,0,0,0,0,-0.0381,-0.0395,-0.0392,-0.0378,-0.0376,-0.0357,-0.0356,-0.0356,-0.0339,-0.0339,-0.0339,-0.0339,-0.0232,-0.0228,-0.0224,-0.0199,0,0,-0.0211,-0.0209,0,0,0,0,0,0,0,0,-0.0381,-0.0381,-0.038,-0.0379,-0.0377,-0.0351,-0.0318,-0.03,-0.0339,-0.0353,-0.0339,-0.0338,-0.0264,-0.0257,-0.0252,-0.0194,-0.019,-0.0211,-0.0208,-0.0206,-0.0205,0,0,0,0,0,0,0,-0.0382,-0.0382,-0.0378,-0.038,-0.0377,-0.0356,-0.0355,-0.0314,-0.0308,-0.0352,-0.0351,-0.0346,-0.0262,-0.0257,-0.0249,-0.0188,-0.0211,-0.0207,-0.0204,-0.0203,-0.0113,-0.0113,0,0,0,0,0,0,-0.0388,-0.0383,-0.0379,-0.0377,-0.0378,-0.0356,-0.0355,-0.036,-0.031,-0.0303,-0.0346,-0.0345,-0.0264,-0.0254,-0.0245,-0.0227,-0.0206,-0.0202,-0.02,-0.0112,-0.0113,-0.0113,0,0,0,0,0,0,-0.0389,-0.0389,-0.0381,-0.0378,-0.0375,-0.0357,-0.0363,-0.0359,-0.0362,-0.0307,-0.0298,-0.0352,-0.0263,-0.0251,-0.0217,-0.0222,-0.02,-0.0197,-0.0112,-0.0112,-0.0113,-0.0181,0,0,0,0,0,0,-0.0389,-0.039,-0.0401,-0.0379,-0.0376,-0.0375,-0.0363,-0.0359,-0.0358,-0.0357,-0.0309,-0.0298,-0.0262,-0.0224,-0.0213,-0.0216,-0.0193,-0.0112,-0.0112,-0.0113,-0.0178,-0.0183,-0.0188,0,0,0,0,0,-0.039,-0.0409,-0.0402,-0.0402,-0.0391,-0.0376,-0.0373,-0.0358,-0.0359,-0.036,-0.033,-0.03,-0.0218,-0.0221,-0.0208,-0.0209,-0.0112,-0.0112,-0.0113,-0.0176,-0.0182,-0.0187,0,0,0,0,0,0,-0.0414,-0.0408,-0.0401,-0.0416,-0.0398,-0.0373,-0.0376,-0.0367,-0.0347,-0.0346,-0.03,-0.0287,-0.0259,-0.0225,-0.0229,-0.0184,-0.0161,-0.0159,-0.0214,-0.0219,-0.0223,-0.0224,-0.019,0,0,0,0,0,-0.0425,-0.044,-0.0418,-0.043,-0.0424,-0.0402,-0.0397,-0.0386,-0.0362,-0.0355,-0.0319,-0.0281,-0.0249,-0.0228,-0.019,-0.0164,-0.0111,-0.0157,-0.0162,-0.0166,-0.0158,-0.009,-0.0088,-0.0114,-0.0114,-0.0114,0,0,-0.0436,-0.0435,-0.0442,-0.0436,-0.0422,-0.0421,-0.0399,-0.0395,-0.0396,-0.0343,-0.0332,-0.0294,-0.0246,-0.022,-0.0204,-0.0192,-0.013,-0.0166,-0.0171,-0.016,-0.009,-0.0088,-0.0085,-0.0114,-0.0114,-0.0114,0,0,-0.0461,-0.0464,-0.0481,-0.0475,-0.0461,-0.0442,-0.0445,-0.042,-0.0412,-0.0393,-0.0359,-0.0327,-0.0275,-0.0243,-0.0221,-0.0227,-0.0158,-0.0214,-0.0236,-0.0171,-0.0168,-0.0165,-0.0094,-0.0084,-0.0216,-0.0216,-0.0217,0,-0.0474,-0.0494,-0.048,-0.0493,-0.0492,-0.0457,-0.0467,-0.0453,-0.042,-0.0408,-0.0397,-0.0321,-0.0288,-0.0252,-0.0257,-0.0238,-0.0181,-0.0223,-0.0177,-0.0173,-0.0168,-0.0096,-0.0084,-0.022,-0.0219,-0.0219,-0.0219,0,-0.0506,-0.0526,-0.0534,-0.054,-0.0534,-0.0537,-0.0513,-0.0502,-0.0484,-0.046,-0.042,-0.0369,-0.0322,-0.031,-0.0286,-0.0241,-0.0204,-0.0192,-0.0165,-0.017,-0.0093,-0.0079,-0.0224,-0.0223,-0.0222,-0.0221,0,0,-0.0529,-0.0553,-0.0559,-0.0569,-0.0562,-0.0558,-0.0558,-0.0537,-0.0532,-0.049,-0.0468,-0.042,-0.038,-0.0352,-0.0311,-0.0256,-0.0187,-0.0213,-0.0208,-0.0145,-0.0024,-0.0032,-0.0017,-0.016,-0.0158,-0.0157,0.0016,0,-0.0556,-0.06,-0.0598,-0.0624,-0.0638,-0.0614,-0.0615,-0.0593,-0.0562,-0.0528,-0.0468,-0.0426,-0.04,-0.0371,-0.0317,-0.0212,-0.0152,-0.0233,-0.0025,-0.0019,-0.0028,-0.0003,-0.0151,0.0027,0.003,0.0033,0.0034,0,-0.0587,-0.0614,-0.0655,-0.067,-0.0671,-0.0681,-0.0669,-0.066,-0.0608,-0.0582,-0.0527,-0.0465,-0.0381,-0.036,-0.0184,-0.0231,-0.0135,-0.0055,-0.0046,-0.0018,-0.0001,0.0035,0.006,0.0058,0.0056,0.0055,0.0053,0,-0.0612,-0.0649,-0.0685,-0.0694,-0.0704,-0.0717,-0.0713,-0.0682,-0.0665,-0.0606,-0.057,-0.0471,-0.0396,-0.0273,-0.0119,-0.0138,0.0089,0.008,0.0167,0.0168,0.0153,0.0148,0.0206,0.0206,0.0206,0.0205,0.0205,0,-0.0639,-0.0666,-0.0706,-0.0728,-0.0761,-0.0753,-0.0763,-0.0748,-0.0704,-0.0667,-0.0594,-0.0524,-0.0366,-0.0222,-0.0102,0.0083,0.0105,0.0179,0.0215,0.012,0.0109,0.0163,0.0156,0.0212,0.021,0.0209,0.0208,0,-0.0653,-0.0681,-0.0725,-0.0763,-0.0776,-0.08,-0.0801,-0.0796,-0.0753,-0.0698,-0.0671,-0.053,-0.0346,-0.0184,0.004,0.0115,0.028,0.0337,0.024,0.0265,0.0313,0.0301,0.0453,0.0454,0.0456,0.0456,0.0457,0,-0.0659,-0.0688,-0.0757,-0.0787,-0.0809,-0.0839,-0.0853,-0.0831,-0.0811,-0.0691,-0.0653,-0.0472,-0.0367,-0.0039,0.0103,0.0336,0.0352,0.0434,0.0354,0.0321,0.0341,0.0326,0.0312,0.0459,0.0459,0.0459,0.046,0,-0.0666,-0.07,-0.0738,-0.0809,-0.0849,-0.0875,-0.0887,-0.0869,-0.0813,-0.0773,-0.0599,-0.0435,-0.0226,-0.0017,0.0167,0.0322,0.0375,0.0445,0.0443,0.0368,0.033,0.0345,0.033,0.0463,0.0463,0.0462,0.0462,0,-0.0666,-0.07,-0.076,-0.0812,-0.0868,-0.0889,-0.0896,-0.084,-0.0803,-0.0671,-0.0608,-0.0391,-0.026,-0.002,0.0148,0.0299,0.0318,0.0343,0.0346,0.0344,0.0237,0.0167,0.0298,0,0,0,0,0,-0.0654,-0.0689,-0.0749,-0.081,-0.0867,-0.0893,-0.09,-0.089,-0.0836,-0.0712,-0.0653,-0.0458,-0.018,-0.0056,0.0098,0.013,0.0314,0.0309,0.0337,0.0483,0.0479,0.0368,0,0,0,0,0,0,-0.0646,-0.0703,-0.0741,-0.0795,-0.083,-0.088,-0.0887,-0.0854,-0.0771,-0.0692,-0.0536,-0.044,-0.0172,-0.0262,0.0098,0.0143,0.0176,0.0443,0.0445,0.0486,0.0482,0.0478,0.0363,0,0,0,0,0]}]]